Weather reports worldwide

Advertisment
Herstmonceux, United Kingdom (3882): temperature & dewpoint: 01.08.2020 02:00:00 - 07.08.2020 02:00:00 (BST)Herstmonceux, United Kingdom (3882): temperature -20cm & temperature -100cm: 01.08.2020 02:00:00 - 07.08.2020 02:00:00 (BST)Herstmonceux, United Kingdom (3882): wind speed: 01.08.2020 02:00:00 - 07.08.2020 02:00:00 (BST)Herstmonceux, United Kingdom (3882): wind direction: 01.08.2020 02:00:00 - 07.08.2020 02:00:00 (BST)Herstmonceux, United Kingdom (3882): reduced air pressure: 01.08.2020 02:00:00 - 07.08.2020 02:00:00 (BST)Herstmonceux, United Kingdom (3882): visibility: 01.08.2020 02:00:00 - 07.08.2020 02:00:00 (BST)Herstmonceux, United Kingdom (3882): sunshine duration: 01.08.2020 02:00:00 - 07.08.2020 02:00:00 (BST)Herstmonceux, United Kingdom (3882): precipitation: 01.08.2020 02:00:00 - 07.08.2020 02:00:00 (BST)
Date & Time tt [°C] td [°C] tt -20cm [°C] tt -100cm [°C] ff [km/h] ff [kn] dd ppp [hPa] vv [km] sd [min] rr [mm]
07.08.2020 02:00:00 16,7 14,1 - - 4 2 NNE 1018,1 25 0 0,0
07.08.2020 01:00:00 17,3 14,4 - - 4 2 NE 1018,4 40 - 0,0
07.08.2020 00:00:00 17,7 14,7 - - 4 2 NE 1018,5 35 0 0,0
06.08.2020 23:00:00 18,3 15,1 - - 4 2 NE 1018,4 40 0 0,0
06.08.2020 22:00:00 17,6 15,0 - - 4 2 NNE 1018,3 40 0 0,0
06.08.2020 21:00:00 19,8 15,3 - - 2 1 WSW 1017,8 50 18 0,0
06.08.2020 20:00:00 23,8 14,7 - - 5 3 SW 1017,5 45 60 0,0
06.08.2020 19:00:00 26,7 12,3 - - 5 3 S 1017,2 35 60 0,0
06.08.2020 18:00:00 27,0 11,8 - - 8 4 S 1017,2 50 60 0,0
06.08.2020 17:00:00 27,6 11,2 - - 5 3 SSW 1017,3 45 60 0,0
06.08.2020 16:00:00 27,5 14,1 - - 5 3 SW 1017,7 40 60 0,0
06.08.2020 15:00:00 26,1 15,0 - - 8 4 S 1017,9 23 60 0,0
06.08.2020 14:00:00 25,0 15,0 - - 11 6 S 1018,2 40 60 0,0
06.08.2020 13:00:00 24,6 16,0 - - 9 5 S 1018,2 40 60 0,0
06.08.2020 12:00:00 24,4 16,4 - - 9 5 S 1018,3 30 60 0,0
06.08.2020 11:00:00 22,9 16,6 - - 8 4 S 1018,3 50 48 0,0
06.08.2020 10:00:00 21,3 16,9 19,2 17,5 4 2 SW 1018,2 50 6 0,0
06.08.2020 09:00:00 19,9 16,6 - - 8 4 SW 1017,9 35 0 0,0
06.08.2020 08:00:00 18,9 16,7 - - 9 5 SSW 1017,6 45 0 0,0
06.08.2020 07:00:00 17,5 16,5 - - 5 3 SSW 1017,3 23 0 0,0
06.08.2020 06:00:00 16,8 16,2 - - 4 2 S 1016,8 15 0 0,0
06.08.2020 05:00:00 16,7 16,1 - - 5 3 SW 1016,3 11 0 0,0
06.08.2020 04:00:00 16,6 16,2 - - 8 4 SSW 1016,1 12 0 0,0
06.08.2020 03:00:00 16,2 15,3 - - 4 2 SSE 1016,0 30 0 0,0
06.08.2020 02:00:00 16,2 15,1 - - 4 2 SW 1015,8 30 0 0,0
06.08.2020 01:00:00 16,2 14,5 - - 5 3 WSW 1015,6 35 - 0,0
06.08.2020 00:00:00 17,2 13,7 - - 5 3 SW 1015,6 50 0 0,0
05.08.2020 23:00:00 17,6 13,5 - - 4 2 W 1015,3 50 0 0,0
05.08.2020 22:00:00 17,0 12,5 - - 2 1 S 1015,0 50 0 0,0
05.08.2020 21:00:00 18,3 12,1 - - 5 3 WSW 1014,3 50 6 0,0
05.08.2020 20:00:00 20,5 12,2 - - 8 4 WSW 1014,2 50 6 0,0
05.08.2020 19:00:00 19,9 13,4 - - 11 6 WSW 1014,1 45 30 0,0
05.08.2020 18:00:00 21,5 11,3 - - 16 9 W 1013,9 40 60 0,0
05.08.2020 17:00:00 21,7 13,5 - - 16 9 W 1013,7 40 60 0,0
05.08.2020 16:00:00 21,6 13,4 - - 16 9 WSW 1014,1 35 60 0,0
05.08.2020 15:00:00 21,1 11,8 - - 16 9 W 1014,1 40 60 0,0
05.08.2020 14:00:00 21,5 11,1 - - 21 11 SW 1014,0 40 60 0,0
05.08.2020 13:00:00 21,9 11,9 - - 16 9 SW 1014,0 35 60 0,0
05.08.2020 12:00:00 21,1 11,6 - - 15 8 WSW 1014,3 35 60 0,0
05.08.2020 11:00:00 21,0 12,5 - - 16 9 SW 1014,3 35 60 0,0
05.08.2020 10:00:00 20,2 13,5 19,0 17,5 15 8 SW 1014,2 35 60 0,0
05.08.2020 09:00:00 19,5 13,9 - - 9 5 SW 1014,5 30 18 0,0
05.08.2020 08:00:00 17,5 13,8 - - 13 7 SW 1014,4 45 0 0,0
05.08.2020 07:00:00 15,8 13,4 - - 9 5 SSW 1014,1 40 0 0,0
05.08.2020 06:00:00 14,9 12,5 - - 8 4 S 1014,1 45 0 0,0
05.08.2020 05:00:00 14,2 12,9 - - 8 4 SW 1014,1 35 0 0,0
05.08.2020 04:00:00 14,6 13,4 - - 11 6 SW 1014,3 40 0 0,0
05.08.2020 03:00:00 14,7 12,4 - - 5 3 SW 1014,6 45 0 0,0
05.08.2020 02:00:00 14,7 12,8 - - 8 4 WSW 1014,8 50 0 0,0
05.08.2020 01:00:00 14,4 12,5 - - 9 5 SSW 1014,9 40 - 0,0
05.08.2020 00:00:00 14,4 12,1 - - 8 4 SSW 1015,2 35 0 0,0
04.08.2020 23:00:00 14,2 11,4 - - 5 3 SW 1015,4 45 0 0,0
04.08.2020 22:00:00 14,9 12,0 - - 8 4 WSW 1015,7 50 0 0,0
04.08.2020 21:00:00 15,5 12,1 - - 9 5 WSW 1015,4 35 18 0,0
04.08.2020 20:00:00 16,8 11,8 - - 13 7 WSW 1015,5 45 60 0,0
04.08.2020 19:00:00 17,9 11,5 - - 15 8 W 1015,6 35 48 0,0
04.08.2020 18:00:00 17,9 10,5 - - 16 9 WSW 1016,0 35 36 0,0
04.08.2020 17:00:00 18,2 9,5 - - 13 7 WSW 1016,2 40 54 0,0
04.08.2020 16:00:00 19,7 9,1 - - 16 9 WSW 1016,5 50 60 0,0
04.08.2020 15:00:00 18,6 6,4 - - 16 9 WSW 1017,0 45 54 0,0
04.08.2020 14:00:00 20,2 9,5 - - 18 10 WSW 1017,2 30 60 0,0
04.08.2020 13:00:00 20,8 8,3 - - 13 7 W 1017,4 35 60 0,0
04.08.2020 12:00:00 20,6 8,6 - - 13 7 WSW 1017,2 50 60 0,0
04.08.2020 11:00:00 20,4 11,7 - - 11 6 WSW 1017,2 45 30 0,0
04.08.2020 10:00:00 18,1 15,5 19,0 17,4 5 3 SSW 1017,4 25 24 0,0
04.08.2020 09:00:00 17,5 15,2 - - 4 2 S 1017,7 27 12 0,0
04.08.2020 08:00:00 14,1 13,5 - - 2 1 SW 1017,6 35 0 0,0
04.08.2020 07:00:00 11,8 11,5 - - 4 2 ENE 1017,1 40 0 0,0
04.08.2020 06:00:00 11,1 10,7 - - 4 2 ENE 1017,1 23 0 0,0
04.08.2020 05:00:00 11,3 10,7 - - 5 3 ENE 1017,1 23 0 0,0
04.08.2020 04:00:00 11,8 10,9 - - 4 2 ENE 1017,3 40 0 0,0
04.08.2020 03:00:00 12,7 11,8 - - 5 3 NE 1017,4 45 0 0,0
04.08.2020 02:00:00 12,9 11,5 - - 2 1 ENE 1017,5 35 0 0,0
04.08.2020 01:00:00 14,1 12,0 - - 4 2 NE 1017,5 30 - 0,0
04.08.2020 00:00:00 15,4 13,0 - - 8 4 ENE 1017,2 35 0 0,0
03.08.2020 23:00:00 14,9 12,4 - - 5 3 NE 1016,8 30 0 0,0
03.08.2020 22:00:00 16,0 7,7 - - 5 3 NNE 1016,3 50 0 0,0
03.08.2020 21:00:00 18,5 7,1 - - 5 3 N 1015,7 50 - 0,0
03.08.2020 20:00:00 20,4 7,2 - - 5 3 NNE 1015,0 40 - 0,0
03.08.2020 19:00:00 20,7 7,3 - - 2 1 NE 1014,8 45 - 0,0
03.08.2020 18:00:00 21,4 6,9 - - 8 4 NNE 1014,7 50 - 0,0
03.08.2020 17:00:00 21,4 5,8 - - 15 8 N 1014,7 50 - 0,0
03.08.2020 16:00:00 23,3 5,9 - - 9 5 WNW 1014,5 30 - 0,0
03.08.2020 15:00:00 21,9 8,1 - - 11 6 NW 1014,8 30 - 0,0
03.08.2020 14:00:00 21,1 9,5 - - 9 5 NNW 1015,2 30 - 0,0
03.08.2020 13:00:00 20,4 8,6 - - 11 6 NW 1015,4 35 - 0,0
03.08.2020 12:00:00 19,5 8,8 - - 11 6 NNW 1015,4 45 - 0,0
03.08.2020 11:00:00 19,2 8,2 - - 11 6 N 1015,3 30 - 0,0
03.08.2020 10:00:00 18,0 9,1 19,2 17,4 11 6 N 1015,5 45 24 0,0
03.08.2020 09:00:00 15,9 9,8 - - 11 6 NNE 1015,3 50 0 0,0
03.08.2020 08:00:00 15,0 11,5 - - 8 4 N 1014,9 40 0 0,0
03.08.2020 07:00:00 13,8 11,7 - - 5 3 NW 1014,6 40 0 0,0
03.08.2020 06:00:00 13,3 11,9 - - 4 2 WNW 1014,5 45 0 0,0
03.08.2020 05:00:00 13,4 12,5 - - 4 2 NW 1014,2 35 0 0,0
03.08.2020 04:00:00 13,5 12,7 - - 4 2 W 1014,4 29 0 0,0
03.08.2020 03:00:00 14,1 13,2 - - 4 2 W 1014,7 21 0 0,0
03.08.2020 02:00:00 14,7 13,3 - - 4 2 W 1015,1 24 0 0,0
03.08.2020 01:00:00 15,4 13,3 - - 5 3 W 1015,2 26 - 0,0
03.08.2020 00:00:00 16,1 13,4 - - 5 3 W 1015,5 35 0 0,0
02.08.2020 23:00:00 16,4 13,7 - - 9 5 W 1015,8 30 0 0,0
02.08.2020 22:00:00 16,2 13,8 - - 5 3 WSW 1016,0 30 0 0,0
02.08.2020 21:00:00 16,8 13,7 - - 9 5 WSW 1016,1 26 0 0,0
02.08.2020 20:00:00 17,6 13,6 - - 9 5 W 1015,9 30 6 0,0
02.08.2020 19:00:00 18,2 13,2 - - 13 7 W 1016,0 45 36 0,0
02.08.2020 18:00:00 18,6 12,4 - - 18 10 W 1016,1 40 54 0,0
02.08.2020 17:00:00 18,9 11,9 - - 16 9 W 1016,5 29 48 0,0
02.08.2020 16:00:00 20,8 12,6 - - 15 8 WSW 1016,6 35 60 0,0
02.08.2020 15:00:00 20,9 12,4 - - 15 8 WSW 1016,8 20 54 0,0
02.08.2020 14:00:00 20,6 12,3 - - 15 8 SW 1017,0 45 24 0,0
02.08.2020 13:00:00 20,1 11,5 - - 13 7 W 1017,3 30 30 0,0
02.08.2020 12:00:00 19,6 10,9 - - 11 6 W 1017,6 50 12 0,0
02.08.2020 11:00:00 18,5 10,3 - - 9 5 WNW 1017,8 45 30 0,0
02.08.2020 10:00:00 18,0 10,2 19,4 17,2 9 5 W 1017,8 35 60 0,0
02.08.2020 09:00:00 16,3 10,8 - - 11 6 WNW 1017,8 35 30 0,0
02.08.2020 08:00:00 14,1 11,3 - - 9 5 NW 1017,9 30 0 0,0
02.08.2020 07:00:00 12,0 10,4 - - 8 4 WNW 1017,8 40 0 0,0
02.08.2020 06:00:00 11,0 9,2 - - 5 3 W 1017,6 40 0 0,0
02.08.2020 05:00:00 11,5 9,4 - - 5 3 WNW 1017,3 45 0 0,0
02.08.2020 04:00:00 12,0 9,6 - - 8 4 W 1017,0 35 0 0,0
02.08.2020 03:00:00 13,3 9,7 - - 5 3 W 1016,8 45 0 0,0
02.08.2020 02:00:00 14,2 10,6 - - 8 4 W 1016,7 40 0 0,0
02.08.2020 01:00:00 15,5 11,6 - - 8 4 WNW 1016,8 35 - 0,0
02.08.2020 00:00:00 16,4 14,1 - - 8 4 W 1016,5 25 0 0,0
01.08.2020 23:00:00 16,5 15,1 - - 9 5 W 1016,3 17 0 0,0
01.08.2020 22:00:00 16,8 14,3 - - 11 6 W 1016,3 28 0 0,0
01.08.2020 21:00:00 17,5 14,2 - - 9 5 WSW 1016,2 25 12 0,0
01.08.2020 20:00:00 18,6 14,4 - - 11 6 W 1016,2 40 36 0,0
01.08.2020 19:00:00 19,7 14,4 - - 11 6 W 1016,1 30 60 0,0
01.08.2020 18:00:00 20,1 14,9 - - 13 7 WSW 1016,4 23 60 0,0
01.08.2020 17:00:00 20,3 14,7 - - 16 9 WSW 1016,5 20 60 0,0
01.08.2020 16:00:00 21,1 15,3 - - 15 8 WSW 1016,7 30 54 0,0
01.08.2020 15:00:00 21,1 16,0 - - 15 8 WSW 1016,5 23 42 0,0
01.08.2020 14:00:00 21,6 15,7 - - 15 8 WSW 1016,5 25 48 0,0
01.08.2020 13:00:00 21,2 15,2 - - 13 7 WSW 1016,6 22 36 0,0
01.08.2020 12:00:00 22,1 15,3 - - 15 8 WSW 1016,3 23 36 0,0
01.08.2020 11:00:00 20,9 14,4 - - 15 8 WSW 1016,3 30 48 0,0
01.08.2020 10:00:00 20,6 14,2 19,7 17,0 11 6 WSW 1016,0 25 54 0,0
01.08.2020 09:00:00 19,3 14,4 - - 9 5 W 1015,8 50 30 0,0
01.08.2020 08:00:00 17,4 14,4 - - 8 4 W 1015,7 30 0 0,0
01.08.2020 07:00:00 16,5 14,4 - - 8 4 W 1015,5 40 0 0,0
01.08.2020 06:00:00 17,1 16,4 - - 5 3 W 1015,1 20 0 0,0
01.08.2020 05:00:00 17,7 17,1 - - 5 3 W 1014,4 15 0 0,0
01.08.2020 04:00:00 17,7 17,1 - - 5 3 W 1014,1 18 0 0,0
01.08.2020 03:00:00 18,0 17,4 - - 8 4 WSW 1014,1 9 0 0,0
01.08.2020 02:00:00 18,4 17,7 - - 9 5 WSW 1013,8 12 0 0,0

tt = temperature
td = dewpoint
tt -20cm = temperature -20cm
tt -100cm = temperature -100cm
ff = wind speed
dd = wind direction
ppp = reduced air pressure
vv = visibility
sd = sunshine duration
rr = precipitation

Next stations